Location: East Guldeford
(50.9500°N, 0.7500°E)
Time: 09:02:28
(UTC+00:00)

SL-8 Rocket - Pass Details

Date: 12 May 2021
Orbit: 957 x 990 km, 82.9° (Epoch: 16 June)

Event Time Altitude Azimuth Distance (km) Brightness Sun altitude
Rises 22:54:30 0° 348° (NNW) 3,718 8.7 -19.5°
Reaches altitude 10° 22:57:03 10° 345° (NNW) 2,765 7.6 -19.6°
Maximum altitude 23:03:19 64° 266° (W) 1,094 4.2 -19.8°
Enters shadow 23:06:26 31° 196° (SSW) 1,675 4.7 -19.9°
